Temperature
18 18 18 18 18 18 18 18 18 17 17 18 17 17 17 17 17 17 17 16 16 16 16 16 16 16 16 16 16 15 15 15 15 15 15 15 15 15
18 18 18 18 18 17 17 18 18 17 17 17 17 17 17 17 17 16 16 16 16 16 16 16 16 16 16 15 15 15 15 15 15 15 15 15 15 14
18 18 18 18 17 17 17 17 17 17 17 17 17 17 17 17 16 16 16 16 16 16 16 16 16 15 15 15 15 15 15 15 15 14 15 15 14 14
18 17 17 17 17 17 17 17 17 17 17 17 17 17 16 16 16 16 16 15 15 15 15 15 15 15 15 15 15 15 15 14 14 14 14 14 14 14
17 17 17 17 17 17 17 17 17 17 16 16 16 16 16 16 16 15 15 15 15 15 15 15 15 15 15 15 15 14 14 14 14 14 14 14 14 14
17 17 17 17 17 17 16 17 16 16 16 16 16 16 16 15 15 15 15 15 15 15 15 15 15 15 15 15 14 14 14 14 14 14 14 14 14 13
17 17 17 17 16 16 16 16 16 16 16 16 16 15 15 15 15 15 14 14 14 14 14 14 14 14 14 14 14 14 14 14 14 13 13 13 13 13
17 17 17 16 16 16 16 16 16 16 16 15 15 15 15 15 15 14 14 14 14 14 14 14 14 14 14 14 14 14 14 13 13 13 13 13 13 13
17 16 16 16 16 16 16 16 16 16 15 15 15 15 15 15 14 14 14 14 14 14 14 14 14 13 13 13 13 13 13 13 13 13 13 13 13 13
16 16 16 16 16 16 16 15 15 15 15 15 15 15 15 15 14 14 14 14 13 14 14 13 13 13 13 13 13 13 13 13 13 13 13 13 12 12
16 16 15 15 15 15 15 15 15 15 15 15 14 14 14 14 14 14 14 13 13 13 13 13 13 13 13 13 13 13 12 12 12 12 12 12 12 12
15 15 15 15 15 15 15 14 14 14 14 14 14 14 14 14 14 14 13 13 13 13 13 13 13 13 12 12 12 12 12 12 12 12 12 12 12 12
15 15 15 15 15 14 14 14 14 14 14 13 13 13 13 13 13 13 13 13 13 13 13 13 13 12 12 12 12 12 12 12 12 12 12 12 11 11
14 14 14 14 14 14 14 14 14 13 13 13 13 13 13 13 13 13 13 13 13 12 12 12 12 12 12 12 12 12 12 12 12 12 12 11 11 11
14 14 14 14 14 14 14 13 13 13 13 13 12 12 12 12 12 12 12 12 12 12 12 12 12 12 12 12 12 12 11 11 11 11 11 11 11 11
14 14 14 14 13 13 13 13 13 13 12 12 12 12 12 12 12 12 12 12 12 12 12 12 12 12 12 12 11 11 11 11 11 11 11 11 11 11
13 13 13 13 13 13 13 12 12 12 12 12 12 12 12 12 12 12 12 12 11 12 12 12 12 12 11 11 11 11 11 11 11 11 11 10 10 10
13 13 12 12 12 12 12 12 12 12 12 12 11 11 11 11 11 11 11 11 11 11 11 11 11 11 11 11 11 11 11 11 11 11 10 10 10 10
13 12 12 12 12 12 12 11 11 11 11 11 11 11 11 11 11 11 11 11 11 11 11 11 11 11 10 10 11 11 11 11 10 10 10 10 10 10
12 12 12 11 11 11 11 11 11 11 11 11 11 11 11 11 11 11 11 11 11 11 11 11 10 10 10 10 10 11 11 10 10 10 10 10 10 10
12 11 11 11 11 11 11 11 10 10 10 10 10 10 10 10 10 10 10 10 10 10 10 10 10 10 10 10 10 10 10 10 10 10 10 10 10 9
11 11 11 11 11 10 10 10 10 10 10 10 10 10 10 10 10 10 10 10 10 10 10 10 10 10 10 10 10 10 10 10 10 10 10 10 10 9
11 11 11 10 10 10 10 10 10 10 10 10 10 10 10 10 10 10 10 10 10 10 10 10 10 10 10 10 10 10 10 10 10 10 10 10 10 9
Wind_Speed
5 5 4 3 3 3 2 3 3 3 3 3 2 3 4 5 7 6 5 9 11 10 10 10 9 8 8 7 7 7 7 7 7 7 7 7 6 6
4 4 4 4 3 3 3 3 2 3 3 2 2 2 3 3 6 5 5 6 9 11 11 11 10 10 9 8 8 7 7 6 6 6 6 6 6 6
5 5 5 4 3 3 3 3 3 2 3 3 2 1 2 2 3 4 5 6 7 11 12 12 11 10 9 8 7 6 6 6 6 5 5 5 6 6
6 5 5 5 4 4 3 4 3 3 3 4 3 2 2 3 3 4 4 4 5 8 12 13 12 11 10 9 8 7 6 5 5 5 4 5 5 6
6 5 5 4 5 4 4 3 3 3 2 3 4 2 2 2 2 2 3 2 4 5 8 10 12 11 10 9 9 8 6 6 5 5 5 5 5 5
5 5 4 4 4 4 4 3 3 2 2 3 3 3 2 2 2 2 3 3 3 3 3 5 8 10 9 9 9 8 7 6 6 5 4 4 4 4
4 4 4 2 2 2 3 2 2 2 3 3 3 2 2 2 2 2 2 2 3 2 2 2 3 4 5 7 8 9 8 7 6 5 5 5 4 4
4 3 3 3 2 3 2 2 2 3 3 3 3 3 3 3 2 3 2 2 3 2 1 2 3 2 4 6 9 11 10 8 7 6 5 5 5 5
3 3 4 2 3 2 1 1 1 2 4 4 4 4 4 3 3 3 3 4 4 3 2 3 3 3 4 5 9 11 11 9 9 8 7 6 6 6
3 3 2 2 2 2 1 2 1 1 2 2 2 3 3 2 4 5 5 4 4 3 2 3 2 2 2 4 9 10 10 9 9 8 7 7 6 6
2 2 2 2 2 3 2 2 1 1 1 1 1 2 3 3 3 2 3 3 3 2 1 2 2 2 2 2 6 10 9 9 9 8 7 7 6 5
1 2 2 3 3 3 3 2 2 2 1 1 2 2 3 4 4 3 3 3 2 2 1 1 2 1 1 1 3 5 6 7 7 7 7 8 6 4
2 2 1 3 3 4 4 3 4 3 2 2 2 2 2 2 2 3 3 2 2 2 1 1 1 1 2 1 1 4 5 4 6 6 7 9 9 6
2 1 1 2 2 3 3 3 3 2 2 2 2 2 1 1 1 1 2 2 2 2 2 1 1 1 2 1 1 2 3 4 5 4 5 7 8 9
1 1 2 3 2 3 4 4 3 2 2 2 2 2 1 2 2 1 2 2 1 2 1 1 1 1 2 2 1 1 1 2 3 3 3 4 5 5
0 1 1 2 3 3 2 2 3 3 3 2 2 2 1 1 2 2 2 2 1 1 1 1 2 2 2 2 2 1 1 1 2 2 2 3 4 5
0 1 1 1 1 1 1 2 2 1 2 1 1 2 2 1 2 1 1 1 1 1 1 1 2 3 2 1 1 1 1 1 1 2 2 2 2 3
1 1 1 1 1 1 1 1 1 1 1 1 2 2 2 1 1 1 1 1 1 1 1 1 1 1 1 1 1 2 2 2 1 1 2 2 2 2
1 2 2 1 1 1 1 1 0 0 1 1 2 2 1 1 2 2 2 2 2 2 1 1 1 1 2 3 2 2 2 2 1 1 2 2 2 2
2 2 1 1 1 0 0 0 1 1 1 1 1 1 1 1 2 2 1 2 2 2 2 1 1 2 3 3 2 2 4 2 2 2 2 2 1 1
1 0 0 0 1 1 1 1 0 1 1 1 1 1 2 2 2 2 2 3 3 3 2 3 3 4 3 2 2 2 2 3 3 3 2 2 2 2
1 0 0 0 1 1 1 1 0 1 1 1 1 1 2 2 3 3 3 3 3 3 3 2 2 2 2 2 3 3 2 2 2 3 3 3 2 3
0 0 0 0 0 0 1 1 1 1 1 2 2 2 2 3 3 3 3 3 3 4 3 2 1 2 2 2 2 2 3 2 2 2 2 4 6 6
Wind_Direction
241 243 246 250 251 249 240 223 228 257 261 228 206 186 166 159 159 172 171 183 191 197 203 209 210 213 218 223 225 231 238 247 247 244 243 244 243 245
236 238 252 249 245 245 246 248 243 243 266 264 230 191 174 174 164 174 181 192 199 201 203 209 211 214 217 221 226 228 234 242 246 242 234 231 237 240
245 238 239 249 249 250 253 251 240 238 258 277 268 181 168 185 174 189 201 198 202 205 205 207 210 211 208 211 215 222 229 238 242 242 237 234 232 234
244 244 244 244 240 249 252 253 245 234 239 260 264 244 233 204 193 220 225 217 204 210 206 204 207 206 206 210 211 214 222 231 235 237 238 238 235 233
241 244 243 244 244 244 245 248 251 252 234 247 258 253 250 220 207 244 258 234 244 221 206 203 206 204 203 205 206 209 215 223 227 227 230 233 235 236
245 249 250 246 246 248 245 246 254 251 241 241 250 253 249 228 202 228 256 247 256 233 201 196 200 203 201 203 202 202 206 214 216 219 226 231 234 233
247 240 237 215 208 230 252 250 248 243 243 242 245 251 254 250 239 250 251 260 258 239 208 203 182 180 192 206 203 201 203 208 210 214 221 224 226 228
245 239 217 195 187 185 230 250 241 235 238 239 251 247 244 249 249 248 246 254 259 242 221 227 187 188 191 191 197 198 201 204 207 212 220 224 225 227
234 227 231 208 172 163 171 172 249 258 241 237 245 251 244 236 229 243 253 260 259 245 231 231 202 206 193 187 188 193 195 198 204 209 211 214 218 221
222 221 211 199 218 163 202 220 224 270 255 216 223 235 237 238 227 227 238 253 255 251 217 231 221 215 194 171 183 187 189 196 201 205 207 210 216 222
223 213 204 188 198 178 190 196 217 280 324 103 187 224 232 240 231 223 230 226 249 245 230 220 224 217 202 191 182 185 193 203 206 206 211 212 220 226
231 205 206 199 193 180 200 207 224 246 245 260 275 253 233 224 209 205 215 228 246 252 228 237 240 204 216 194 169 185 201 213 215 213 217 219 214 214
242 236 218 170 173 186 205 224 233 243 248 247 250 239 218 201 195 193 199 209 228 246 231 221 259 239 217 220 197 190 191 199 206 216 222 222 216 214
247 239 196 169 180 205 210 234 252 255 241 240 246 246 225 214 206 185 181 193 208 225 232 216 250 247 257 252 234 200 196 197 190 192 204 216 222 230
258 263 226 209 221 223 216 214 218 225 224 225 236 245 239 210 216 227 207 196 209 224 219 208 235 240 243 243 238 219 217 211 192 189 194 197 204 211
316 0 313 242 249 237 230 216 216 222 222 232 240 250 242 220 217 215 206 200 200 207 200 212 214 219 235 236 217 232 230 224 213 207 200 209 212 209
175 224 244 230 198 220 233 231 228 219 224 245 256 256 259 251 253 242 219 209 201 210 226 246 234 220 201 219 224 244 257 260 234 214 216 228 228 213
152 208 229 233 217 216 230 246 232 215 233 249 264 260 257 255 252 260 254 243 233 235 225 253 273 266 259 305 277 260 265 262 261 225 224 228 243 238
176 224 237 240 244 218 195 212 223 230 243 246 261 259 257 258 250 239 247 260 248 238 227 235 260 265 252 257 267 250 243 249 266 261 249 240 242 236
205 213 223 235 231 178 80 354 335 310 265 251 256 257 254 256 254 255 252 269 263 256 242 218 236 245 244 250 249 256 235 225 229 246 258 260 253 152
206 205 218 305 16 16 4 337 323 311 302 289 275 269 263 257 254 257 258 265 264 262 248 239 240 236 236 232 246 245 230 219 216 220 236 239 245 223
230 207 153 69 32 356 339 316 294 291 296 292 296 291 277 270 268 265 263 261 261 266 266 259 245 239 238 240 251 253 240 215 225 230 239 235 226 227
283 24 39 35 1 311 330 307 302 292 296 293 281 273 277 279 274 269 272 268 268 271 266 261 262 258 248 242 255 267 259 238 215 212 248 251 218 207
Height
1535 1536 1536 1536 1536 1537 1537 1537 1538 1537 1537 1537 1536 1536 1536 1536 1535 1535 1535 1535 1534 1534 1534 1533 1533 1533 1532 1532 1532 1532 1532 1532 1532 1533 1533 1533 1533 1534
1532 1532 1532 1533 1533 1534 1534 1534 1535 1535 1534 1534 1533 1534 1534 1534 1533 1532 1532 1531 1531 1531 1531 1530 1530 1530 1530 1529 1529 1529 1529 1529 1529 1529 1529 1529 1530 1530
1528 1529 1529 1529 1530 1530 1531 1531 1531 1531 1531 1531 1531 1531 1530 1530 1530 1529 1529 1528 1528 1528 1528 1527 1527 1527 1526 1526 1526 1525 1525 1525 1525 1525 1525 1525 1526 1526
1525 1525 1525 1526 1526 1527 1527 1527 1527 1527 1528 1527 1527 1528 1527 1527 1527 1526 1526 1525 1525 1524 1524 1524 1523 1523 1523 1523 1522 1522 1522 1522 1522 1522 1521 1522 1522 1522
1521 1521 1521 1522 1522 1523 1523 1523 1523 1524 1524 1524 1523 1524 1524 1523 1523 1523 1522 1522 1521 1521 1521 1520 1520 1520 1520 1520 1519 1519 1519 1519 1519 1519 1518 1519 1519 1519
1516 1517 1517 1518 1518 1518 1519 1519 1520 1520 1520 1520 1519 1519 1519 1519 1519 1519 1518 1518 1518 1518 1517 1517 1517 1517 1517 1516 1516 1516 1516 1516 1516 1516 1516 1516 1516 1515
1512 1512 1513 1513 1514 1515 1515 1516 1516 1516 1516 1515 1515 1515 1515 1515 1515 1515 1515 1514 1514 1515 1514 1514 1514 1513 1513 1513 1513 1513 1513 1513 1513 1513 1513 1513 1513 1512
1508 1508 1509 1509 1510 1511 1511 1512 1512 1512 1511 1511 1511 1511 1511 1511 1511 1511 1511 1511 1511 1512 1511 1511 1511 1510 1510 1509 1509 1510 1510 1510 1510 1510 1510 1510 1510 1510
1504 1504 1505 1505 1506 1506 1507 1508 1508 1508 1508 1508 1507 1507 1507 1507 1507 1507 1507 1507 1507 1508 1508 1507 1508 1507 1507 1506 1506 1507 1507 1507 1507 1507 1507 1507 1507 1507
1500 1501 1501 1501 1502 1503 1503 1503 1503 1504 1504 1504 1503 1503 1503 1503 1503 1503 1503 1503 1504 1504 1505 1505 1504 1504 1505 1504 1504 1504 1504 1504 1505 1505 1504 1504 1504 1504
1497 1497 1498 1498 1499 1500 1500 1500 1500 1500 1500 1500 1500 1499 1499 1499 1499 1499 1499 1500 1500 1500 1501 1501 1501 1501 1502 1502 1502 1502 1502 1502 1502 1502 1502 1502 1502 1501
1494 1494 1495 1495 1496 1496 1497 1497 1497 1497 1497 1497 1497 1496 1496 1496 1496 1496 1496 1496 1496 1497 1498 1498 1498 1498 1499 1499 1499 1499 1499 1500 1500 1500 1500 1500 1499 1499
1490 1491 1492 1492 1493 1493 1494 1494 1494 1494 1494 1494 1494 1494 1493 1492 1492 1493 1493 1493 1494 1494 1495 1495 1495 1496 1496 1496 1496 1496 1496 1497 1497 1497 1497 1497 1497 1497
1488 1488 1489 1489 1490 1490 1491 1491 1491 1491 1492 1491 1491 1491 1491 1491 1491 1491 1491 1491 1491 1491 1492 1492 1493 1493 1493 1493 1493 1494 1494 1494 1494 1494 1494 1494 1494 1494
1485 1486 1486 1486 1487 1487 1487 1487 1488 1488 1489 1489 1489 1489 1489 1489 1489 1489 1489 1489 1488 1489 1489 1490 1490 1490 1491 1491 1491 1491 1491 1491 1491 1491 1491 1491 1491 1491
1483 1483 1483 1483 1484 1484 1483 1485 1485 1485 1486 1486 1486 1487 1487 1487 1487 1487 1486 1486 1486 1486 1487 1487 1488 1488 1488 1489 1489 1489 1489 1489 1488 1488 1488 1488 1488 1488
1480 1480 1481 1481 1481 1481 1481 1482 1483 1483 1483 1483 1484 1484 1484 1485 1485 1485 1485 1485 1484 1484 1484 1485 1485 1486 1486 1486 1486 1486 1486 1486 1486 1486 1485 1485 1485 1485
1478 1478 1479 1479 1479 1479 1480 1480 1480 1480 1481 1481 1481 1482 1482 1482 1483 1483 1483 1483 1482 1482 1482 1483 1483 1483 1484 1484 1485 1484 1484 1484 1484 1483 1483 1483 1482 1482
1477 1477 1478 1478 1478 1478 1478 1479 1479 1479 1479 1479 1479 1480 1480 1480 1481 1481 1481 1481 1481 1480 1480 1481 1481 1481 1481 1481 1481 1482 1481 1481 1481 1481 1480 1480 1479 1479
1476 1476 1477 1477 1477 1477 1477 1477 1477 1477 1477 1477 1477 1477 1478 1478 1478 1478 1478 1478 1478 1478 1478 1478 1479 1478 1478 1479 1479 1479 1479 1479 1478 1478 1477 1477 1477 1477
1475 1475 1475 1475 1475 1475 1475 1475 1475 1475 1476 1476 1475 1475 1476 1476 1476 1476 1476 1476 1476 1476 1476 1476 1476 1477 1477 1477 1477 1476 1476 1476 1475 1475 1475 1474 1474 1474
1473 1474 1474 1474 1474 1474 1474 1474 1474 1474 1474 1474 1474 1474 1474 1474 1474 1474 1474 1474 1473 1474 1474 1474 1474 1474 1474 1474 1474 1474 1474 1473 1473 1472 1472 1472 1471 1470
1472 1472 1472 1472 1472 1472 1472 1472 1472 1472 1472 1472 1472 1472 1472 1471 1471 1472 1472 1471 1471 1471 1471 1471 1471 1471 1471 1471 1471 1471 1470 1470 1469 1469 1469 1469 1469 1468